Starlink 1655

operational
NORAD ID: 47623 Int'l Des: 2021-012 Owner: SPXS Country: US Constellation: starlink
LEOCIRCULARSTARLINK_TYPE

Starlink 1655について

説明を読み込み中...

リアルタイム位置

3D地球を読み込み中...

次回通過

高度履歴

Altitude vs Time

uPlot chart will show altitude changes over time

軌道要素

1 47623U 21012D 26033.66670139 .00184889 00000-0 25886-2 0 9999
2 47623 53.0456 136.6127 0008630 198.6463 210.2416 15.55637696 5821
Epoch: Feb 2, 2026 • Age: 9 hours

現在のステータス

高度 407.5 km
速度 7.67 km/s
衛星直下点 52.52°N, 82.22°E
打ち上げ日 Feb 16, 2021
運用期間 4.9 years
タイプ internet

技術仕様

分類 Payload
質量 260.00 kg
乾燥質量 248.00 kg
総質量 260.00 kg
長さ 0.20 m
直径 2.80 m
スパン 9.00 m
形状 Box + pan
製造者 SPXS
バスタイプ Starlink
フェーズステータス In Orbit
所有者/国 SPXS/US

大規模コンステレーション

Loading constellations...